| time (UTC) | temp C | wind direction | speed KPH | gust KPH | rain 1hr cm | rain 24hr cm | rain mn cm | humidity % | barometer mb |
| 20260505200506 | 21 | 189 | 4.8 | 19.3 | 0.00 | 0.03 | 0.00 | 53 | 1004.3 |
| 20260505200023 | 21 | 199 | 4.8 | 16.1 | 0.00 | 0.03 | 0.00 | 53 | 1004.3 |
| 20260505195506 | 21 | 185 | 4.8 | 20.9 | 0.00 | 0.03 | 0.00 | 54 | 1004.3 |
| 20260505195005 | 21 | 207 | 8.0 | 20.9 | 0.00 | 0.03 | 0.00 | 53 | 1004.3 |
| 20260505194519 | 21 | 175 | 8.0 | 20.9 | 0.00 | 0.03 | 0.00 | 53 | 1004.3 |
| 20260505194007 | 21 | 184 | 8.0 | 24.1 | 0.00 | 0.03 | 0.00 | 53 | 1004.4 |
| 20260505193506 | 21 | 216 | 4.8 | 24.1 | 0.00 | 0.03 | 0.00 | 54 | 1004.4 |
| 20260505193027 | 21 | 191 | 6.4 | 22.5 | 0.00 | 0.03 | 0.00 | 53 | 1004.4 |
| 20260505192510 | 21 | 128 | 8.0 | 17.7 | 0.00 | 0.03 | 0.00 | 53 | 1004.5 |
| 20260505192009 | 21 | 136 | 8.0 | 17.7 | 0.00 | 0.03 | 0.00 | 53 | 1004.7 |
| 20260505191528 | 21 | 173 | 8.0 | 16.1 | 0.00 | 0.03 | 0.00 | 53 | 1004.7 |
| 20260505191006 | 21 | 184 | 8.0 | 16.1 | 0.00 | 0.03 | 0.00 | 54 | 1004.7 |
| 20260505190504 | 21 | 202 | 4.8 | 16.1 | 0.00 | 0.03 | 0.00 | 53 | 1004.8 |
| 20260505190014 | 21 | 173 | 6.4 | 16.1 | 0.00 | 0.03 | 0.00 | 53 | 1004.8 |
| 20260505185504 | 21 | 183 | 6.4 | 22.5 | 0.00 | 0.03 | 0.00 | 52 | 1004.8 |
| 20260505185006 | 22 | 155 | 8.0 | 22.5 | 0.00 | 0.03 | 0.00 | 51 | 1004.8 |
| 20260505184525 | 22 | 144 | 6.4 | 20.9 | 0.00 | 0.03 | 0.00 | 52 | 1004.7 |
| 20260505184007 | 22 | 189 | 8.0 | 20.9 | 0.00 | 0.03 | 0.00 | 52 | 1004.9 |
| 20260505183506 | 22 | 169 | 6.4 | 14.5 | 0.00 | 0.03 | 0.00 | 52 | 1004.9 |
| 20260505183040 | 22 | 192 | 3.2 | 20.9 | 0.00 | 0.03 | 0.00 | 53 | 1005.0 |
| 20260505182507 | 22 | 201 | 4.8 | 20.9 | 0.00 | 0.03 | 0.00 | 52 | 1005.0 |
| 20260505182014 | 22 | 166 | 6.4 | 16.1 | 0.00 | 0.03 | 0.00 | 53 | 1004.9 |
| 20260505181526 | 21 | 190 | 4.8 | 17.7 | 0.00 | 0.03 | 0.00 | 53 | 1004.9 |
| 20260505181015 | 22 | 153 | 6.4 | 17.7 | 0.00 | 0.03 | 0.00 | 51 | 1005.0 |
| 20260505180509 | 22 | 161 | 8.0 | 17.7 | 0.00 | 0.03 | 0.00 | 51 | 1004.9 |
| 20260505180027 | 22 | 184 | 4.8 | 16.1 | 0.00 | 0.03 | 0.00 | 51 | 1005.0 |
| 20260505175506 | 22 | 185 | 4.8 | 16.1 | 0.00 | 0.03 | 0.00 | 51 | 1005.0 |
| 20260505175005 | 22 | 291 | 4.8 | 17.7 | 0.00 | 0.03 | 0.00 | 51 | 1005.1 |
| 20260505174516 | 22 | 154 | 4.8 | 17.7 | 0.00 | 0.03 | 0.00 | 50 | 1005.1 |
| 20260505174008 | 22 | 170 | 4.8 | 20.9 | 0.00 | 0.03 | 0.00 | 50 | 1005.3 |
| 20260505173509 | 22 | 146 | 4.8 | 20.9 | 0.00 | 0.03 | 0.00 | 50 | 1005.2 |
| 20260505173023 | 22 | 215 | 3.2 | 14.5 | 0.00 | 0.05 | 0.00 | 51 | 1005.4 |
| 20260505172506 | 22 | 202 | 6.4 | 22.5 | 0.00 | 0.05 | 0.00 | 51 | 1005.5 |
| 20260505172010 | 22 | 190 | 4.8 | 22.5 | 0.00 | 0.05 | 0.00 | 53 | 1005.6 |
| 20260505171526 | 21 | 211 | 3.2 | 17.7 | 0.00 | 0.05 | 0.00 | 53 | 1005.7 |
| 20260505171009 | 21 | 350 | 3.2 | 17.7 | 0.00 | 0.05 | 0.00 | 57 | 1005.8 |
| 20260505170509 | 21 | 155 | 4.8 | 20.9 | 0.00 | 0.05 | 0.00 | 56 | 1005.9 |
| 20260505170032 | 21 | 227 | 4.8 | 20.9 | 0.00 | 0.05 | 0.00 | 54 | 1005.9 |
| 20260505165510 | 21 | 191 | 6.4 | 19.3 | 0.00 | 0.05 | 0.00 | 54 | 1006.1 |
| 20260505165010 | 20 | 194 | 6.4 | 19.3 | 0.00 | 0.05 | 0.00 | 55 | 1005.9 |
| 20260505164512 | 20 | 173 | 4.8 | 19.3 | 0.00 | 0.05 | 0.00 | 56 | 1005.9 |
| 20260505164006 | 20 | 171 | 6.4 | 12.9 | 0.00 | 0.05 | 0.00 | 55 | 1006.1 |
| 20260505163509 | 20 | 234 | 4.8 | 19.3 | 0.00 | 0.05 | 0.00 | 58 | 1006.3 |
| 20260505163018 | 19 | 230 | 3.2 | 20.9 | 0.00 | 0.05 | 0.00 | 60 | 1006.5 |
| 20260505162506 | 19 | 184 | 8.0 | 20.9 | 0.00 | 0.05 | 0.00 | 59 | 1006.6 |
| 20260505162008 | 18 | 283 | 4.8 | 11.3 | 0.00 | 0.05 | 0.00 | 59 | 1006.7 |
| 20260505161528 | 18 | 281 | 4.8 | 20.9 | 0.00 | 0.05 | 0.00 | 60 | 1006.7 |
| 20260505161011 | 18 | 124 | 3.2 | 20.9 | 0.00 | 0.05 | 0.00 | 61 | 1006.8 |
| 20260505160509 | 18 | 150 | 4.8 | 11.3 | 0.00 | 0.05 | 0.00 | 61 | 1006.7 |
| 20260505153018 | 18 | 197 | 4.8 | 16.1 | 0.00 | 0.05 | 0.00 | 59 | 1007.5 |
| 20260505152508 | 18 | 222 | 4.8 | 16.1 | 0.00 | 0.05 | 0.00 | 59 | 1007.5 |
| 20260505152007 | 18 | 155 | 4.8 | 14.5 | 0.00 | 0.05 | 0.00 | 57 | 1007.4 |
| 20260505151520 | 19 | 204 | 6.4 | 16.1 | 0.00 | 0.05 | 0.00 | 56 | 1007.2 |
| 20260505151006 | 19 | 210 | 4.8 | 16.1 | 0.00 | 0.05 | 0.00 | 56 | 1007.1 |
| 20260505150508 | 19 | 191 | 6.4 | 16.1 | 0.00 | 0.05 | 0.00 | 55 | 1007.1 |
| 20260505140510 | 18 | 163 | 6.4 | 12.9 | 0.00 | 0.05 | 0.00 | 56 | 1007.2 |
| 20260505125004 | 15 | 136 | 3.2 | 12.9 | 0.00 | 0.05 | 0.00 | 64 | 1007.5 |
| 20260505124506 | 15 | 179 | 3.2 | 12.9 | 0.00 | 0.05 | 0.00 | 66 | 1007.5 |
| 20260505124008 | 15 | 214 | 1.6 | 6.4 | 0.00 | 0.05 | 0.00 | 66 | 1007.5 |
| 20260505123508 | 14 | 187 | 1.6 | 6.4 | 0.00 | 0.05 | 0.00 | 66 | 1007.5 |
| 20260505123011 | 14 | 142 | 1.6 | 8.0 | 0.00 | 0.05 | 0.00 | 67 | 1007.5 |
| 20260505122504 | 14 | 168 | 1.6 | 8.0 | 0.00 | 0.05 | 0.00 | 67 | 1007.6 |
| 20260505122004 | 13 | 171 | 1.6 | 8.0 | 0.00 | 0.05 | 0.00 | 68 | 1007.7 |
| 20260505121519 | 13 | 195 | 1.6 | 11.3 | 0.00 | 0.05 | 0.00 | 70 | 1007.8 |
| 20260505121005 | 13 | 247 | 3.2 | 12.9 | 0.00 | 0.05 | 0.00 | 70 | 1008.1 |
| 20260505120507 | 13 | 157 | 3.2 | 12.9 | 0.00 | 0.05 | 0.00 | 71 | 1007.8 |
| 20260505120020 | 12 | 236 | 1.6 | 6.4 | 0.00 | 0.05 | 0.00 | 74 | 1008.0 |
| 20260505115511 | 12 | 223 | 1.6 | 4.8 | 0.00 | 0.05 | 0.00 | 75 | 1008.0 |
| 20260505115009 | 12 | 190 | 1.6 | 8.0 | 0.00 | 0.05 | 0.00 | 75 | 1008.0 |
| 20260505114524 | 11 | 168 | 0.0 | 8.0 | 0.00 | 0.05 | 0.00 | 77 | 1008.0 |
| 20260505114004 | 11 | 174 | 0.0 | 8.0 | 0.00 | 0.05 | 0.00 | 78 | 1007.9 |
| 20260505113504 | 10 | 172 | 1.6 | 8.0 | 0.00 | 0.05 | 0.00 | 79 | 1007.9 |
| 20260505113006 | 10 | 157 | 1.6 | 4.8 | 0.00 | 0.05 | 0.00 | 81 | 1008.0 |
| 20260505112504 | 10 | 167 | 0.0 | 4.8 | 0.00 | 0.05 | 0.00 | 82 | 1008.1 |
| 20260505112003 | 9 | 165 | 0.0 | 1.6 | 0.00 | 0.05 | 0.00 | 84 | 1008.1 |
| 20260505111513 | 9 | 159 | 0.0 | 3.2 | 0.00 | 0.05 | 0.00 | 84 | 1008.1 |
| 20260505111005 | 8 | 238 | 0.0 | 6.4 | 0.00 | 0.05 | 0.00 | 84 | 1008.3 |
| 20260505110509 | 8 | 238 | 0.0 | 6.4 | 0.00 | 0.05 | 0.00 | 84 | 1008.2 |
| 20260505102003 | 7 | 187 | 0.0 | 0.0 | 0.00 | 0.05 | 0.00 | 86 | 1007.9 |
| 20260505101513 | 7 | 181 | 0.0 | 0.0 | 0.00 | 0.05 | 0.00 | 86 | 1007.8 |
| 20260505101003 | 7 | 181 | 0.0 | 0.0 | 0.00 | 0.05 | 0.00 | 87 | 1007.8 |
| 20260505100506 | 7 | 181 | 0.0 | 0.0 | 0.00 | 0.05 | 0.00 | 87 | 1007.7 |
| 20260505100017 | 7 | 181 | 0.0 | 0.0 | 0.00 | 0.05 | 0.00 | 87 | 1007.8 |
| 20260505095506 | 7 | 181 | 0.0 | 0.0 | 0.00 | 0.05 | 0.00 | 87 | 1007.7 |
| 20260505095009 | 7 | 181 | 0.0 | 0.0 | 0.00 | 0.05 | 0.00 | 87 | 1007.7 |
| 20260505094526 | 7 | 181 | 0.0 | 0.0 | 0.00 | 0.05 | 0.00 | 87 | 1007.7 |
| 20260505094009 | 7 | 181 | 0.0 | 0.0 | 0.00 | 0.05 | 0.00 | 87 | 1007.7 |
| 20260505093506 | 6 | 181 | 0.0 | 0.0 | 0.00 | 0.05 | 0.00 | 87 | 1007.6 |
| 20260505093024 | 6 | 181 | 0.0 | 0.0 | 0.00 | 0.05 | 0.00 | 87 | 1007.7 |
| 20260505092511 | 6 | 179 | 0.0 | 0.0 | 0.00 | 0.05 | 0.00 | 87 | 1007.7 |
| 20260505092010 | 6 | 186 | 0.0 | 0.0 | 0.00 | 0.05 | 0.00 | 87 | 1007.7 |
| 20260505091527 | 6 | 192 | 0.0 | 0.0 | 0.00 | 0.05 | 0.00 | 87 | 1007.7 |
| 20260505091006 | 6 | 192 | 0.0 | 0.0 | 0.00 | 0.05 | 0.00 | 87 | 1007.7 |
| 20260505090503 | 6 | 192 | 0.0 | 0.0 | 0.00 | 0.05 | 0.00 | 87 | 1007.8 |
| 20260505090014 | 6 | 192 | 0.0 | 0.0 | 0.00 | 0.05 | 0.00 | 87 | 1007.8 |
| 20260505085503 | 6 | 192 | 0.0 | 0.0 | 0.00 | 0.05 | 0.00 | 87 | 1007.8 |
| 20260505085003 | 6 | 192 | 0.0 | 0.0 | 0.00 | 0.05 | 0.00 | 87 | 1007.8 |
| 20260505084531 | 6 | 192 | 0.0 | 0.0 | 0.00 | 0.05 | 0.00 | 87 | 1007.8 |
| 20260505084009 | 6 | 192 | 0.0 | 0.0 | 0.00 | 0.05 | 0.00 | 87 | 1007.8 |
| 20260505083507 | 6 | 182 | 0.0 | 0.0 | 0.00 | 0.05 | 0.00 | 87 | 1007.9 |
| 20260505083025 | 6 | 182 | 0.0 | 0.0 | 0.00 | 0.05 | 0.00 | 87 | 1007.9 |
| 20260505082507 | 6 | 182 | 0.0 | 0.0 | 0.00 | 0.05 | 0.00 | 86 | 1007.9 |
| 20260505082010 | 6 | 182 | 0.0 | 0.0 | 0.00 | 0.05 | 0.00 | 87 | 1007.9 |
| 20260505081524 | 6 | 182 | 0.0 | 0.0 | 0.00 | 0.05 | 0.00 | 85 | 1007.9 |
| 20260505081011 | 7 | 182 | 0.0 | 0.0 | 0.00 | 0.05 | 0.00 | 84 | 1007.9 |
| 20260505080510 | 7 | 182 | 0.0 | 0.0 | 0.00 | 0.05 | 0.00 | 84 | 1008.0 |
| 20260505080025 | 7 | 182 | 0.0 | 0.0 | 0.00 | 0.05 | 0.00 | 83 | 1008.0 |
| 20260505075503 | 7 | 182 | 0.0 | 0.0 | 0.00 | 0.05 | 0.00 | 84 | 1008.0 |
| 20260505075006 | 7 | 182 | 0.0 | 0.0 | 0.00 | 0.05 | 0.00 | 84 | 1007.9 |
| 20260505074514 | 7 | 182 | 0.0 | 0.0 | 0.00 | 0.05 | 0.00 | 83 | 1007.9 |
| 20260505074004 | 7 | 182 | 0.0 | 0.0 | 0.00 | 0.05 | 0.00 | 83 | 1007.9 |
| 20260505073507 | 7 | 182 | 0.0 | 0.0 | 0.00 | 0.05 | 0.00 | 83 | 1007.9 |
| 20260505073033 | 7 | 182 | 0.0 | 0.0 | 0.00 | 0.05 | 0.00 | 83 | 1008.0 |
| 20260505072506 | 7 | 182 | 0.0 | 0.0 | 0.00 | 0.05 | 0.00 | 82 | 1008.0 |
| 20260505072007 | 7 | 182 | 0.0 | 0.0 | 0.00 | 0.05 | 0.00 | 81 | 1007.9 |
| 20260505071525 | 8 | 182 | 0.0 | 0.0 | 0.00 | 0.05 | 0.00 | 80 | 1007.9 |
| 20260505071008 | 8 | 182 | 0.0 | 0.0 | 0.00 | 0.05 | 0.00 | 80 | 1008.0 |
| 20260505070504 | 8 | 182 | 0.0 | 0.0 | 0.00 | 0.05 | 0.00 | 79 | 1007.9 |
| 20260505070009 | 8 | 182 | 0.0 | 0.0 | 0.00 | 0.05 | 0.00 | 78 | 1007.9 |
| 20260505065504 | 8 | 182 | 0.0 | 0.0 | 0.00 | 0.05 | 0.00 | 78 | 1007.9 |
| 20260505065004 | 9 | 182 | 0.0 | 0.0 | 0.00 | 0.05 | 0.00 | 77 | 1007.9 |
| 20260505064513 | 9 | 182 | 0.0 | 0.0 | 0.00 | 0.05 | 0.00 | 77 | 1007.9 |
| 20260505064003 | 9 | 182 | 0.0 | 0.0 | 0.00 | 0.05 | 0.00 | 76 | 1007.8 |
| 20260505063504 | 10 | 182 | 0.0 | 0.0 | 0.00 | 0.05 | 0.00 | 76 | 1007.8 |
| 20260505063021 | 10 | 182 | 0.0 | 0.0 | 0.00 | 0.05 | 0.00 | 75 | 1007.9 |
| 20260505062508 | 10 | 182 | 0.0 | 3.2 | 0.00 | 0.05 | 0.00 | 75 | 1007.8 |
| 20260505062009 | 10 | 182 | 0.0 | 3.2 | 0.00 | 0.05 | 0.00 | 75 | 1007.8 |
| 20260505061530 | 10 | 252 | 0.0 | 3.2 | 0.00 | 0.05 | 0.00 | 75 | 1007.8 |
| 20260505061008 | 10 | 216 | 0.0 | 1.6 | 0.00 | 0.05 | 0.00 | 75 | 1007.8 |
| 20260505060512 | 10 | 223 | 0.0 | 0.0 | 0.00 | 0.05 | 0.00 | 76 | 1007.8 |
| 20260505060027 | 9 | 211 | 0.0 | 0.0 | 0.00 | 0.05 | 0.00 | 77 | 1007.8 |
| 20260505055504 | 9 | 211 | 0.0 | 3.2 | 0.00 | 0.05 | 0.00 | 77 | 1007.8 |
| 20260505055004 | 9 | 211 | 0.0 | 3.2 | 0.00 | 0.05 | 0.00 | 78 | 1007.9 |
| 20260505054508 | 8 | 171 | 0.0 | 0.0 | 0.00 | 0.05 | 0.00 | 79 | 1007.9 |
| 20260505054005 | 8 | 171 | 0.0 | 0.0 | 0.00 | 0.05 | 0.00 | 79 | 1007.8 |
| 20260505053506 | 8 | 171 | 0.0 | 3.2 | 0.00 | 0.05 | 0.00 | 79 | 1007.8 |
| 20260505053017 | 8 | 171 | 0.0 | 3.2 | 0.00 | 0.05 | 0.00 | 79 | 1007.7 |
| 20260505052504 | 8 | 174 | 0.0 | 1.6 | 0.00 | 0.05 | 0.00 | 79 | 1007.7 |
| 20260505052007 | 8 | 271 | 0.0 | 0.0 | 0.00 | 0.05 | 0.00 | 79 | 1007.7 |
| 20260505051521 | 8 | 271 | 0.0 | 1.6 | 0.00 | 0.05 | 0.00 | 79 | 1007.7 |
| 20260505051008 | 8 | 271 | 0.0 | 3.2 | 0.00 | 0.05 | 0.00 | 79 | 1007.7 |
| 20260505050508 | 8 | 255 | 0.0 | 3.2 | 0.00 | 0.05 | 0.00 | 79 | 1007.6 |
| 20260505041530 | 8 | 181 | 1.6 | 3.2 | 0.00 | 0.05 | 0.00 | 81 | 1007.3 |
| 20260505041007 | 8 | 226 | 0.0 | 3.2 | 0.00 | 0.05 | 0.00 | 81 | 1007.2 |
| 20260505040508 | 8 | 193 | 0.0 | 3.2 | 0.00 | 0.05 | 0.00 | 82 | 1007.3 |
| 20260505040035 | 8 | 190 | 0.0 | 0.0 | 0.00 | 0.05 | 0.00 | 82 | 1007.2 |
| 20260505035511 | 8 | 190 | 0.0 | 0.0 | 0.00 | 0.05 | 0.05 | 82 | 1007.1 |
| 20260505035011 | 7 | 190 | 0.0 | 0.0 | 0.00 | 0.05 | 0.05 | 82 | 1007.1 |
| 20260505034525 | 7 | 190 | 0.0 | 0.0 | 0.00 | 0.05 | 0.05 | 82 | 1007.0 |
| 20260505034006 | 8 | 190 | 0.0 | 0.0 | 0.00 | 0.05 | 0.05 | 82 | 1007.0 |
| 20260505033508 | 8 | 205 | 0.0 | 0.0 | 0.00 | 0.05 | 0.05 | 82 | 1007.0 |
| 20260505033011 | 8 | 205 | 0.0 | 0.0 | 0.00 | 0.05 | 0.05 | 82 | 1007.0 |
| 20260505032504 | 8 | 205 | 0.0 | 0.0 | 0.00 | 0.05 | 0.05 | 81 | 1007.0 |
| 20260505032006 | 8 | 207 | 0.0 | 0.0 | 0.00 | 0.05 | 0.05 | 81 | 1007.0 |
| 20260505031531 | 8 | 207 | 0.0 | 0.0 | 0.00 | 0.05 | 0.05 | 81 | 1007.1 |
| 20260505031006 | 8 | 207 | 0.0 | 0.0 | 0.00 | 0.05 | 0.05 | 80 | 1007.0 |
| 20260505030504 | 8 | 207 | 0.0 | 0.0 | 0.00 | 0.05 | 0.05 | 80 | 1006.9 |
| 20260505030020 | 8 | 207 | 0.0 | 0.0 | 0.00 | 0.05 | 0.05 | 79 | 1007.0 |
| 20260505025507 | 8 | 207 | 0.0 | 0.0 | 0.00 | 0.05 | 0.05 | 79 | 1007.0 |
| 20260505025011 | 8 | 207 | 0.0 | 1.6 | 0.00 | 0.05 | 0.05 | 79 | 1007.1 |
| 20260505024524 | 8 | 207 | 0.0 | 3.2 | 0.00 | 0.05 | 0.05 | 78 | 1007.1 |
| 20260505024007 | 8 | 207 | 0.0 | 3.2 | 0.00 | 0.05 | 0.05 | 78 | 1007.2 |
| 20260505023509 | 8 | 207 | 0.0 | 3.2 | 0.00 | 0.05 | 0.05 | 78 | 1007.1 |
| 20260505023023 | 8 | 188 | 0.0 | 1.6 | 0.00 | 0.05 | 0.05 | 78 | 1007.1 |
| 20260505022510 | 8 | 186 | 0.0 | 3.2 | 0.00 | 0.05 | 0.05 | 77 | 1007.2 |
| 20260505022014 | 9 | 188 | 0.0 | 3.2 | 0.00 | 0.05 | 0.05 | 77 | 1007.2 |
| 20260505021509 | 9 | 188 | 1.6 | 3.2 | 0.00 | 0.05 | 0.05 | 77 | 1007.1 |
| 20260505021005 | 9 | 177 | 0.0 | 0.0 | 0.00 | 0.05 | 0.05 | 76 | 1007.0 |
| 20260505020503 | 9 | 177 | 0.0 | 3.2 | 0.00 | 0.05 | 0.05 | 77 | 1007.1 |
| 20260505020014 | 9 | 177 | 0.0 | 3.2 | 0.00 | 0.05 | 0.05 | 77 | 1007.0 |
| 20260505015505 | 9 | 157 | 0.0 | 3.2 | 0.00 | 0.05 | 0.05 | 77 | 1007.0 |
| 20260505015007 | 9 | 299 | 0.0 | 0.0 | 0.00 | 0.05 | 0.05 | 76 | 1007.0 |
| 20260505014528 | 9 | 299 | 0.0 | 0.0 | 0.00 | 0.05 | 0.05 | 76 | 1006.9 |
| 20260505014011 | 10 | 299 | 0.0 | 0.0 | 0.00 | 0.05 | 0.05 | 77 | 1006.9 |
| 20260505013511 | 10 | 299 | 0.0 | 0.0 | 0.00 | 0.05 | 0.05 | 76 | 1006.7 |
| 20260505013022 | 10 | 299 | 0.0 | 3.2 | 0.00 | 0.05 | 0.05 | 77 | 1006.7 |
| 20260505012509 | 10 | 249 | 0.0 | 3.2 | 0.00 | 0.05 | 0.05 | 75 | 1006.7 |
| 20260505012008 | 10 | 249 | 0.0 | 3.2 | 0.00 | 0.05 | 0.05 | 76 | 1006.7 |
| 20260505011528 | 10 | 247 | 0.0 | 3.2 | 0.00 | 0.05 | 0.05 | 77 | 1006.7 |
| 20260505011009 | 10 | 289 | 0.0 | 0.0 | 0.00 | 0.05 | 0.05 | 76 | 1006.6 |
| 20260505010510 | 10 | 292 | 0.0 | 0.0 | 0.00 | 0.05 | 0.05 | 75 | 1006.7 |
| 20260505010017 | 10 | 292 | 0.0 | 1.6 | 0.00 | 0.05 | 0.05 | 74 | 1006.6 |
| 20260505005504 | 11 | 292 | 0.0 | 1.6 | 0.00 | 0.05 | 0.05 | 74 | 1006.6 |
| 20260505005008 | 11 | 291 | 0.0 | 1.6 | 0.00 | 0.05 | 0.05 | 74 | 1006.5 |
| 20260505004516 | 11 | 250 | 0.0 | 1.6 | 0.00 | 0.05 | 0.05 | 74 | 1006.4 |
| 20260505004007 | 11 | 244 | 0.0 | 0.0 | 0.00 | 0.05 | 0.05 | 72 | 1006.2 |
| 20260505003511 | 11 | 244 | 0.0 | 0.0 | 0.00 | 0.05 | 0.05 | 71 | 1006.2 |
| 20260505003022 | 12 | 140 | 0.0 | 0.0 | 0.00 | 0.05 | 0.05 | 71 | 1006.1 |
| 20260505002507 | 12 | 140 | 0.0 | 1.6 | 0.00 | 0.05 | 0.05 | 70 | 1006.0 |
| 20260505002010 | 12 | 152 | 0.0 | 3.2 | 0.00 | 0.05 | 0.05 | 69 | 1005.9 |
| 20260505001528 | 12 | 161 | 0.0 | 3.2 | 0.00 | 0.05 | 0.05 | 68 | 1005.8 |
| 20260505001010 | 12 | 145 | 0.0 | 3.2 | 0.00 | 0.05 | 0.05 | 67 | 1005.7 |
| 20260505000514 | 13 | 130 | 0.0 | 3.2 | 0.00 | 0.05 | 0.05 | 66 | 1005.7 |
| 20260505000030 | 13 | 171 | 0.0 | 3.2 | 0.00 | 0.05 | 0.05 | 65 | 1005.6 |
| 20260504235510 | 13 | 173 | 0.0 | 3.2 | 0.00 | 0.05 | 0.05 | 62 | 1005.6 |
| 20260504235008 | 14 | 173 | 0.0 | 3.2 | 0.00 | 0.05 | 0.05 | 62 | 1005.5 |
| 20260504234513 | 14 | 173 | 0.0 | 3.2 | 0.00 | 0.05 | 0.05 | 60 | 1005.4 |
| 20260504234007 | 15 | 173 | 0.0 | 3.2 | 0.00 | 0.05 | 0.05 | 57 | 1005.5 |
| 20260504233506 | 15 | 196 | 0.0 | 0.0 | 0.00 | 0.05 | 0.05 | 55 | 1005.4 |
| 20260504233018 | 15 | 196 | 0.0 | 3.2 | 0.00 | 0.05 | 0.05 | 54 | 1005.3 |
| 20260504232510 | 16 | 196 | 0.0 | 3.2 | 0.00 | 0.05 | 0.05 | 54 | 1005.3 |
| 20260504232012 | 16 | 248 | 0.0 | 0.0 | 0.00 | 0.05 | 0.05 | 53 | 1005.2 |
| 20260504231524 | 16 | 248 | 0.0 | 0.0 | 0.00 | 0.05 | 0.05 | 54 | 1005.1 |
| 20260504231007 | 16 | 248 | 0.0 | 0.0 | 0.00 | 0.05 | 0.05 | 51 | 1005.2 |
| 20260504230508 | 16 | 262 | 0.0 | 0.0 | 0.00 | 0.05 | 0.05 | 49 | 1005.1 |
| 20260504230028 | 17 | 266 | 0.0 | 0.0 | 0.00 | 0.05 | 0.05 | 49 | 1005.0 |
| 20260504225511 | 17 | 266 | 0.0 | 3.2 | 0.00 | 0.05 | 0.05 | 48 | 1005.0 |
| 20260504225009 | 17 | 266 | 0.0 | 3.2 | 0.00 | 0.05 | 0.05 | 48 | 1005.0 |
| 20260504224526 | 17 | 295 | 0.0 | 3.2 | 0.00 | 0.05 | 0.05 | 47 | 1004.9 |
| 20260504224008 | 17 | 265 | 0.0 | 4.8 | 0.00 | 0.05 | 0.05 | 47 | 1004.8 |
| 20260504223507 | 17 | 307 | 0.0 | 4.8 | 0.00 | 0.05 | 0.05 | 46 | 1004.8 |
| 20260504223028 | 17 | 217 | 0.0 | 3.2 | 0.00 | 0.05 | 0.05 | 47 | 1004.8 |
| 20260504222507 | 17 | 286 | 0.0 | 3.2 | 0.00 | 0.05 | 0.05 | 46 | 1004.8 |
| 20260504222010 | 17 | 67 | 0.0 | 8.0 | 0.00 | 0.05 | 0.05 | 47 | 1004.8 |
| 20260504221520 | 17 | 92 | 0.0 | 8.0 | 0.00 | 0.05 | 0.05 | 47 | 1004.8 |
| 20260504221008 | 17 | 302 | 0.0 | 3.2 | 0.00 | 0.05 | 0.05 | 46 | 1004.9 |
| 20260504220509 | 17 | 208 | 0.0 | 4.8 | 0.00 | 0.05 | 0.05 | 47 | 1004.8 |
| 20260504220026 | 17 | 185 | 0.0 | 4.8 | 0.00 | 0.05 | 0.05 | 47 | 1004.9 |
| 20260504215507 | 17 | 185 | 0.0 | 3.2 | 0.00 | 0.05 | 0.05 | 46 | 1005.0 |
| 20260504215012 | 17 | 225 | 0.0 | 6.4 | 0.00 | 0.05 | 0.05 | 45 | 1005.0 |
| 20260504214527 | 17 | 312 | 1.6 | 12.9 | 0.00 | 0.05 | 0.05 | 47 | 1005.1 |
| 20260504214008 | 18 | 352 | 3.2 | 12.9 | 0.00 | 0.05 | 0.05 | 45 | 1005.1 |
| 20260504213512 | 18 | 242 | 3.2 | 11.3 | 0.00 | 0.05 | 0.05 | 44 | 1005.0 |
| 20260504213042 | 18 | 221 | 1.6 | 12.9 | 0.00 | 0.05 | 0.05 | 44 | 1005.0 |
| 20260504212506 | 18 | 317 | 0.0 | 16.1 | 0.00 | 0.05 | 0.05 | 44 | 1005.0 |
| 20260504212008 | 18 | 248 | 4.8 | 16.1 | 0.00 | 0.05 | 0.05 | 44 | 1005.0 |
| 20260504211528 | 18 | 236 | 3.2 | 11.3 | 0.00 | 0.05 | 0.05 | 43 | 1004.9 |
| 20260504211008 | 18 | 241 | 3.2 | 11.3 | 0.00 | 0.05 | 0.05 | 44 | 1004.8 |
| 20260504210504 | 18 | 216 | 3.2 | 12.9 | 0.03 | 0.05 | 0.05 | 44 | 1004.9 |
| 20260504210008 | 18 | 117 | 3.2 | 14.5 | 0.03 | 0.05 | 0.05 | 46 | 1004.8 |
| 20260504205504 | 17 | 282 | 3.2 | 19.3 | 0.03 | 0.05 | 0.05 | 48 | 1004.8 |
| 20260504205005 | 17 | 40 | 3.2 | 19.3 | 0.03 | 0.05 | 0.05 | 47 | 1004.9 |
| 20260504204519 | 17 | 190 | 3.2 | 17.7 | 0.03 | 0.05 | 0.05 | 49 | 1004.8 |
| 20260504204007 | 17 | 145 | 4.8 | 12.9 | 0.03 | 0.05 | 0.05 | 49 | 1004.8 |
| 20260504203505 | 17 | 210 | 3.2 | 11.3 | 0.03 | 0.05 | 0.05 | 49 | 1004.8 |
| 20260504203020 | 17 | 255 | 3.2 | 9.7 | 0.03 | 0.05 | 0.05 | 50 | 1004.8 |
| 20260504202506 | 17 | 306 | 1.6 | 9.7 | 0.03 | 0.05 | 0.05 | 49 | 1004.8 |
| 20260504202007 | 17 | 254 | 3.2 | 12.9 | 0.03 | 0.05 | 0.05 | 50 | 1004.7 |
| 20260504201515 | 17 | 352 | 3.2 | 17.7 | 0.03 | 0.05 | 0.05 | 49 | 1004.7 |
| 20260504201006 | 17 | 215 | 8.0 | 19.3 | 0.03 | 0.05 | 0.05 | 48 | 1004.7 |